Wetbulb
29.45 28.77 28.39 28.50 28.01 27.74 27.62 27.86 28.65 28.51 28.76 28.78 29.23 29.48 29.80 29.78 29.38 29.67 29.28 28.88 29.00 28.59
29.22 29.16 28.47 28.56 28.58 28.00 27.99 28.08 27.96 28.12 27.76 28.03 28.28 28.41 28.50 27.91 27.24 27.88 27.80 27.63 27.66 27.05
28.45 28.78 28.69 28.70 27.78 27.95 28.20 27.78 26.94 26.74 26.85 26.76 26.92 27.18 27.16 26.56 26.70 26.37 26.33 26.50 26.06 25.96
26.00 26.74 27.72 27.51 27.23 26.84 26.90 26.58 26.35 26.29 25.88 25.52 25.20 25.69 25.42 25.24 25.10 24.90 24.96 25.33 25.29 24.36
22.78 23.87 24.34 24.85 25.36 25.98 25.04 25.95 25.60 25.54 25.10 24.69 24.36 24.53 24.25 24.19 24.01 23.50 23.13 23.22 23.44 23.10
21.01 20.85 20.90 21.75 23.08 24.39 24.12 23.69 24.13 24.14 23.68 23.36 23.32 22.95 22.87 22.94 22.75 22.55 22.51 22.32 22.07 22.19
22.04 22.07 21.48 21.14 21.27 21.72 22.52 22.16 22.28 22.59 22.46 22.61 22.53 22.51 22.57 22.53 21.81 21.80 22.04 22.12 22.06 21.98
20.85 21.86 22.52 22.66 22.59 22.08 21.36 21.25 21.82 21.71 21.75 21.91 22.02 22.41 22.09 22.36 21.83 21.43 21.13 21.70 22.11 22.33
19.65 20.02 20.09 20.57 21.10 21.78 22.14 22.36 22.24 21.35 20.46 20.33 21.77 24.37 26.44 24.32 22.03 22.06 21.55 20.88 21.33 22.81
18.05 18.06 18.77 19.37 19.32 19.26 19.52 20.35 20.15 20.68 21.14 21.02 21.70 25.59 27.70 28.51 26.92 24.84 23.22 22.09 22.20 22.12
16.08 16.11 17.19 17.76 17.88 18.18 18.52 18.18 18.25 18.60 19.36 19.44 20.33 24.15 26.45 27.86 26.59 25.80 24.95 23.94 23.29 22.15
12.34 12.77 14.06 14.22 15.17 16.51 17.11 17.20 17.18 17.88 17.82 17.52 17.90 21.57 23.93 24.54 22.93 22.18 22.06 22.60 22.70 22.59
9.24 9.67 10.10 11.63 12.57 14.07 14.83 15.58 16.67 16.64 17.47 18.23 17.56 20.34 22.40 22.83 21.25 20.14 20.03 20.72 20.98 24.04
5.91 5.89 7.51 9.53 11.21 11.63 11.81 12.90 13.11 13.79 14.97 15.61 16.36 16.13 20.19 21.57 19.49 18.66 18.20 18.48 19.29 20.82
MSLP
1021.64 1022.23 1022.90 1023.21 1023.54 1024.03 1024.38 1024.97 1025.46 1025.92 1026.34 1026.67 1026.92 1027.24 1027.42 1027.50 1027.98 1028.41 1028.76 1029.06 1029.45 1029.77
1022.37 1022.74 1023.22 1023.68 1024.04 1024.37 1024.71 1025.28 1025.88 1026.36 1026.60 1027.06 1027.17 1027.68 1027.77 1028.04 1028.35 1028.83 1029.29 1029.69 1030.03 1030.33
1023.44 1023.63 1023.88 1024.17 1024.49 1024.75 1025.05 1025.49 1026.13 1026.74 1027.02 1027.55 1027.67 1028.12 1028.37 1028.74 1029.24 1029.42 1029.82 1030.23 1030.43 1031.09
1024.64 1024.65 1024.70 1024.84 1025.03 1025.22 1025.53 1025.93 1026.41 1026.90 1027.45 1027.88 1028.25 1028.71 1029.02 1029.41 1029.76 1030.00 1030.43 1030.82 1031.10 1031.50
1025.69 1025.76 1025.75 1025.82 1025.89 1025.97 1026.26 1026.61 1027.10 1027.49 1027.84 1028.20 1028.68 1029.22 1029.41 1029.81 1030.30 1030.65 1030.79 1031.18 1031.48 1031.73
1026.58 1026.85 1026.82 1026.87 1026.84 1027.05 1027.19 1027.24 1027.64 1028.05 1028.39 1028.71 1029.10 1029.56 1029.69 1030.05 1030.50 1030.95 1031.10 1031.39 1031.73 1031.87
1027.52 1027.60 1027.58 1027.55 1027.51 1027.65 1027.87 1027.99 1028.27 1028.45 1028.68 1028.96 1029.18 1029.59 1029.95 1030.24 1030.54 1030.86 1031.01 1031.32 1031.59 1031.83
1028.40 1028.22 1028.02 1027.95 1028.00 1028.11 1027.96 1028.16 1028.43 1028.58 1028.79 1029.02 1029.02 1029.26 1029.55 1029.76 1029.99 1030.29 1030.53 1030.79 1031.05 1031.32
1029.03 1028.89 1028.76 1028.68 1028.56 1028.50 1028.55 1028.65 1028.81 1028.85 1028.95 1028.87 1028.70 1028.77 1028.67 1029.14 1029.42 1029.65 1029.89 1030.21 1030.54 1030.66
1029.50 1029.36 1029.26 1029.17 1029.09 1029.01 1029.00 1028.99 1029.04 1029.01 1028.95 1028.96 1029.14 1028.95 1028.67 1028.61 1028.77 1029.08 1029.38 1029.68 1029.92 1030.09
1029.84 1029.68 1029.51 1029.36 1029.20 1029.06 1029.01 1028.94 1029.01 1029.03 1029.07 1029.10 1029.14 1028.83 1028.52 1028.26 1028.19 1028.34 1028.59 1028.88 1028.99 1029.07
1030.66 1030.30 1029.95 1029.68 1029.48 1029.31 1029.16 1028.99 1028.90 1028.83 1028.81 1028.86 1028.80 1028.69 1028.54 1028.29 1028.15 1028.02 1028.01 1028.11 1028.14 1028.10
1031.11 1030.76 1030.37 1029.98 1029.64 1029.37 1029.16 1028.87 1028.68 1028.50 1028.43 1028.45 1028.36 1028.33 1028.11 1027.89 1027.80 1027.56 1027.47 1027.39 1027.33 1027.24
1031.13 1030.79 1030.44 1030.09 1029.77 1029.48 1029.20 1028.88 1028.64 1028.42 1028.25 1028.14 1028.00 1027.95 1027.62 1027.44 1027.20 1027.07 1026.91 1026.70 1026.54 1026.49
Wind_Speed
8 5 5 5 6 5 5 5 8 8 8 8 8 7 8 7 7 8 7 9 7 6
5 6 6 6 5 5 6 7 8 8 8 8 8 7 7 6 7 7 7 7 7 6
6 5 6 6 6 7 7 8 9 8 8 8 8 7 7 6 6 7 5 5 7 6
9 9 6 5 5 6 6 7 8 8 8 8 7 6 7 6 6 7 6 5 6 6
11 10 9 8 8 7 7 6 6 7 7 7 7 6 6 6 5 5 5 5 5 6
11 10 11 10 9 7 7 7 6 6 6 6 6 5 5 5 5 4 4 4 4 4
7 6 7 7 7 8 6 6 5 5 5 5 5 4 4 4 4 4 4 4 4 5
7 7 5 4 4 4 4 4 4 5 5 5 5 5 6 6 6 6 6 6 6 7
6 5 5 5 5 3 2 1 3 3 3 3 4 10 11 10 7 8 8 8 8 8
6 6 4 3 3 3 2 2 2 2 3 4 5 11 13 14 7 8 8 9 9 9
5 6 6 5 5 4 3 3 3 3 4 5 5 12 14 15 8 7 8 10 11 12
8 7 7 6 6 6 6 5 5 6 6 7 6 12 15 14 8 8 8 9 11 12
6 6 6 7 7 6 7 7 7 8 7 10 8 12 14 13 7 9 8 11 13 21
5 5 6 6 6 7 7 8 8 9 9 9 10 10 16 17 10 9 9 10 9 10
Wind_Direction
118 123 130 137 138 129 121 121 130 122 120 118 118 119 118 112 112 114 115 116 109 108
93 114 124 117 110 112 111 124 122 120 116 113 109 109 106 106 108 110 109 109 109 102
62 81 112 125 125 127 126 124 126 121 115 112 103 106 106 106 111 114 109 115 116 115
38 38 53 76 101 112 113 122 125 125 120 117 110 107 107 107 114 117 114 119 126 122
52 48 48 51 51 64 81 93 111 118 121 118 115 115 115 119 123 131 132 131 135 138
58 57 63 65 69 78 84 78 85 94 103 110 116 122 109 115 128 137 133 139 153 149
60 79 78 64 75 92 95 96 102 112 120 120 120 122 140 149 157 168 169 173 179 182
24 25 38 65 98 99 85 104 136 150 155 160 162 175 184 187 190 197 201 204 205 208
17 16 21 17 20 18 38 151 177 186 196 201 213 217 215 197 207 211 214 214 219 225
1 356 356 351 347 343 338 337 306 276 240 231 225 245 242 241 230 219 219 229 237 235
333 330 332 329 312 290 274 272 267 260 255 255 255 263 265 264 259 243 226 230 234 235
350 338 328 316 309 302 287 270 257 256 245 244 252 268 277 278 281 272 259 248 251 247
319 322 314 309 301 297 288 278 270 265 252 244 249 252 270 276 282 273 261 249 248 252
297 303 295 290 289 281 274 274 270 268 266 258 251 252 262 266 261 260 263 262 259 252